QPF
0.01 0.00 0.00 0.01 0.01 0.02 0.02 0.02 0.03 0.04 0.02 0.01 0.01 0.01 0.01 0.02 0.02 0.01 0.00 0.00 0.00 0.00 0.00 0.00 0.00 0.00 0.00 0.00 0.00 0.00 0.00 0.00 0.00 0.00 0.00 0.01 0.01 0.01 0.01 0.01 0.03 0.03 0.02
0.00 0.00 0.00 0.01 0.02 0.02 0.02 0.02 0.03 0.03 0.02 0.02 0.02 0.02 0.02 0.02 0.01 0.01 0.00 0.00 0.00 0.00 0.00 0.00 0.00 0.00 0.00 0.00 0.00 0.00 0.00 0.00 0.00 0.00 0.00 0.01 0.00 0.01 0.01 0.01 0.02 0.03 0.03
0.00 0.00 0.00 0.01 0.01 0.02 0.02 0.02 0.02 0.02 0.02 0.02 0.02 0.02 0.02 0.02 0.01 0.00 0.00 0.00 0.00 0.00 0.00 0.00 0.00 0.00 0.00 0.00 0.00 0.00 0.00 0.00 0.00 0.00 0.00 0.01 0.01 0.00 0.01 0.01 0.01 0.01 0.03
0.00 0.00 0.00 0.00 0.01 0.01 0.01 0.02 0.02 0.02 0.02 0.03 0.02 0.02 0.02 0.02 0.01 0.00 0.00 0.00 0.00 0.00 0.00 0.00 0.00 0.00 0.00 0.00 0.00 0.00 0.00 0.00 0.00 0.00 0.00 0.01 0.01 0.00 0.00 0.00 0.00 0.00 0.01
0.00 0.00 0.00 0.00 0.01 0.02 0.02 0.02 0.03 0.03 0.03 0.03 0.02 0.02 0.01 0.01 0.00 0.00 0.00 0.00 0.00 0.00 0.00 0.00 0.00 0.00 0.00 0.00 0.00 0.00 0.00 0.00 0.00 0.00 0.00 0.01 0.02 0.00 0.00 0.00 0.00 0.00 0.00
0.00 0.00 0.00 0.00 0.01 0.02 0.03 0.03 0.03 0.04 0.03 0.03 0.02 0.02 0.02 0.01 0.01 0.00 0.00 0.00 0.00 0.00 0.00 0.00 0.00 0.00 0.00 0.00 0.00 0.00 0.00 0.00 0.00 0.00 0.00 0.01 0.02 0.01 0.00 0.00 0.00 0.00 0.00
0.00 0.00 0.00 0.00 0.01 0.02 0.03 0.03 0.03 0.04 0.03 0.02 0.02 0.02 0.02 0.02 0.01 0.01 0.00 0.00 0.00 0.00 0.00 0.00 0.00 0.00 0.00 0.00 0.00 0.00 0.00 0.00 0.00 0.00 0.00 0.01 0.01 0.01 0.01 0.00 0.00 0.00 0.00
0.00 0.00 0.00 0.00 0.01 0.01 0.02 0.02 0.03 0.03 0.03 0.02 0.02 0.02 0.02 0.02 0.02 0.01 0.01 0.00 0.00 0.00 0.00 0.00 0.00 0.00 0.00 0.00 0.00 0.00 0.00 0.00 0.00 0.00 0.00 0.00 0.00 0.01 0.01 0.00 0.00 0.01 0.00
0.00 0.00 0.00 0.01 0.01 0.01 0.02 0.02 0.02 0.02 0.02 0.02 0.02 0.02 0.01 0.01 0.02 0.01 0.01 0.00 0.00 0.00 0.00 0.00 0.00 0.00 0.00 0.00 0.00 0.00 0.00 0.00 0.00 0.00 0.00 0.00 0.00 0.00 0.01 0.00 0.00 0.00 0.00
0.00 0.00 0.00 0.00 0.01 0.01 0.02 0.02 0.02 0.02 0.02 0.02 0.02 0.02 0.01 0.01 0.01 0.01 0.01 0.01 0.00 0.00 0.00 0.00 0.00 0.00 0.00 0.00 0.00 0.00 0.00 0.00 0.00 0.00 0.00 0.00 0.00 0.00 0.00 0.00 0.00 0.00 0.00
0.00 0.00 0.00 0.00 0.00 0.01 0.02 0.02 0.01 0.02 0.02 0.02 0.02 0.01 0.01 0.04 0.06 0.05 0.03 0.01 0.00 0.00 0.00 0.00 0.00 0.00 0.00 0.00 0.00 0.00 0.00 0.00 0.00 0.00 0.00 0.00 0.00 0.00 0.00 0.00 0.00 0.00 0.00
0.00 0.00 0.00 0.00 0.00 0.00 0.00 0.01 0.02 0.03 0.03 0.03 0.05 0.05 0.05 0.07 0.07 0.05 0.02 0.01 0.00 0.00 0.00 0.00 0.00 0.00 0.00 0.00 0.00 0.00 0.00 0.00 0.00 0.00 0.00 0.00 0.00 0.00 0.00 0.00 0.00 0.00 0.00
0.00 0.00 0.00 0.00 0.00 0.00 0.00 0.01 0.02 0.03 0.04 0.04 0.04 0.06 0.06 0.06 0.05 0.04 0.03 0.01 0.01 0.00 0.01 0.00 0.00 0.00 0.00 0.00 0.00 0.00 0.00 0.00 0.00 0.00 0.00 0.00 0.00 0.00 0.00 0.00 0.00 0.00 0.00
0.00 0.00 0.00 0.00 0.00 0.00 0.00 0.01 0.01 0.02 0.02 0.03 0.03 0.03 0.04 0.05 0.05 0.04 0.04 0.03 0.02 0.01 0.01 0.00 0.00 0.00 0.00 0.00 0.00 0.00 0.00 0.00 0.00 0.00 0.00 0.00 0.00 0.00 0.00 0.00 0.00 0.00 0.00
0.00 0.00 0.00 0.00 0.00 0.00 0.00 0.01 0.01 0.01 0.02 0.02 0.02 0.01 0.02 0.03 0.04 0.04 0.03 0.03 0.02 0.01 0.01 0.01 0.00 0.00 0.00 0.00 0.00 0.00 0.00 0.00 0.00 0.00 0.00 0.00 0.00 0.00 0.00 0.00 0.00 0.00 0.00
0.00 0.00 0.00 0.00 0.00 0.00 0.00 0.00 0.00 0.01 0.01 0.01 0.01 0.01 0.01 0.02 0.02 0.02 0.01 0.01 0.01 0.01 0.01 0.01 0.01 0.00 0.00 0.00 0.00 0.00 0.00 0.00 0.00 0.00 0.00 0.00 0.00 0.00 0.00 0.00 0.00 0.00 0.00
0.00 0.00 0.00 0.00 0.00 0.00 0.00 0.00 0.00 0.00 0.00 0.00 0.00 0.00 0.00 0.01 0.01 0.01 0.01 0.01 0.01 0.00 0.00 0.00 0.00 0.00 0.00 0.00 0.00 0.00 0.00 0.00 0.00 0.00 0.00 0.00 0.00 0.00 0.00 0.00 0.00 0.00 0.00
0.00 0.00 0.00 0.00 0.00 0.00 0.00 0.00 0.00 0.00 0.00 0.00 0.00 0.00 0.00 0.00 0.00 0.00 0.00 0.00 0.00 0.00 0.00 0.00 0.00 0.00 0.00 0.00 0.00 0.00 0.00 0.00 0.00 0.00 0.00 0.00 0.00 0.00 0.00 0.00 0.00 0.00 0.00
0.00 0.00 0.00 0.00 0.00 0.00 0.00 0.00 0.00 0.00 0.00 0.00 0.00 0.00 0.00 0.00 0.00 0.00 0.00 0.00 0.00 0.00 0.00 0.00 0.00 0.00 0.00 0.00 0.00 0.00 0.00 0.00 0.00 0.00 0.00 0.00 0.00 0.00 0.00 0.00 0.00 0.00 0.00
0.00 0.00 0.00 0.00 0.00 0.00 0.00 0.00 0.00 0.00 0.00 0.00 0.00 0.00 0.00 0.00 0.00 0.00 0.00 0.00 0.00 0.00 0.00 0.00 0.00 0.00 0.00 0.00 0.00 0.00 0.00 0.00 0.00 0.00 0.00 0.00 0.00 0.00 0.00 0.00 0.00 0.00 0.00
0.00 0.00 0.00 0.00 0.00 0.00 0.00 0.00 0.00 0.00 0.00 0.00 0.00 0.00 0.00 0.00 0.00 0.00 0.00 0.00 0.00 0.00 0.00 0.00 0.00 0.00 0.00 0.00 0.00 0.00 0.00 0.00 0.00 0.00 0.00 0.00 0.00 0.00 0.00 0.00 0.00 0.00 0.00
0.00 0.00 0.00 0.00 0.00 0.00 0.00 0.00 0.00 0.00 0.00 0.00 0.00 0.00 0.00 0.00 0.00 0.00 0.00 0.00 0.00 0.00 0.00 0.00 0.00 0.00 0.00 0.00 0.00 0.00 0.00 0.00 0.00 0.00 0.00 0.00 0.00 0.00 0.00 0.00 0.00 0.00 0.00
0.00 0.00 0.00 0.00 0.00 0.00 0.00 0.00 0.00 0.00 0.00 0.00 0.00 0.00 0.00 0.00 0.00 0.00 0.00 0.00 0.00 0.00 0.00 0.00 0.00 0.00 0.00 0.00 0.00 0.00 0.00 0.00 0.00 0.00 0.00 0.00 0.00 0.00 0.00 0.00 0.00 0.00 0.00
0.00 0.00 0.00 0.00 0.00 0.00 0.00 0.00 0.00 0.00 0.00 0.00 0.00 0.00 0.00 0.00 0.00 0.00 0.00 0.00 0.00 0.00 0.00 0.00 0.00 0.00 0.00 0.00 0.00 0.00 0.00 0.00 0.00 0.00 0.00 0.00 0.00 0.00 0.00 0.00 0.00 0.00 0.00
0.00 0.00 0.00 0.00 0.00 0.00 0.00 0.00 0.00 0.00 0.00 0.00 0.00 0.00 0.00 0.00 0.00 0.00 0.00 0.00 0.00 0.00 0.00 0.00 0.00 0.00 0.00 0.00 0.00 0.00 0.00 0.00 0.00 0.00 0.00 0.00 0.00 0.00 0.00 0.00 0.00 0.00 0.00
0.00 0.00 0.00 0.00 0.00 0.00 0.00 0.00 0.00 0.00 0.00 0.00 0.00 0.00 0.00 0.00 0.00 0.00 0.00 0.00 0.00 0.00 0.00 0.00 0.00 0.00 0.00 0.00 0.00 0.00 0.00 0.00 0.00 0.00 0.00 0.00 0.00 0.00 0.00 0.00 0.00 0.00 0.00
MSLP
1018.20 1018.20 1018.29 1018.49 1018.78 1019.11 1019.43 1019.70 1019.87 1019.94 1019.94 1019.91 1019.90 1019.95 1020.08 1020.28 1020.52 1020.75 1020.95 1021.08 1021.13 1021.12 1021.07 1021.01 1020.96 1020.93 1020.91 1020.88 1020.83 1020.74 1020.62 1020.47 1020.34 1020.24 1020.20 1020.21 1020.26 1020.33 1020.39 1020.42 1020.39 1020.31 1020.20
1018.08 1018.11 1018.26 1018.52 1018.87 1019.26 1019.62 1019.91 1020.09 1020.17 1020.17 1020.15 1020.15 1020.22 1020.38 1020.61 1020.88 1021.15 1021.37 1021.51 1021.58 1021.59 1021.55 1021.51 1021.47 1021.44 1021.41 1021.36 1021.27 1021.14 1020.97 1020.79 1020.64 1020.53 1020.50 1020.54 1020.63 1020.74 1020.83 1020.87 1020.85 1020.77 1020.65
1018.00 1018.06 1018.23 1018.53 1018.93 1019.36 1019.76 1020.09 1020.31 1020.42 1020.45 1020.46 1020.50 1020.60 1020.78 1021.03 1021.31 1021.58 1021.79 1021.93 1022.00 1022.00 1021.98 1021.94 1021.91 1021.88 1021.84 1021.77 1021.65 1021.49 1021.29 1021.09 1020.93 1020.84 1020.83 1020.90 1021.03 1021.17 1021.29 1021.35 1021.34 1021.26 1021.14
1018.01 1018.06 1018.24 1018.56 1018.98 1019.45 1019.89 1020.26 1020.51 1020.67 1020.75 1020.81 1020.89 1021.03 1021.23 1021.49 1021.76 1022.01 1022.20 1022.32 1022.37 1022.37 1022.34 1022.31 1022.28 1022.26 1022.21 1022.13 1022.00 1021.82 1021.61 1021.41 1021.25 1021.18 1021.20 1021.30 1021.45 1021.62 1021.75 1021.83 1021.83 1021.76 1021.64
1018.12 1018.16 1018.33 1018.65 1019.07 1019.55 1020.01 1020.41 1020.71 1020.90 1021.03 1021.14 1021.26 1021.43 1021.65 1021.91 1022.17 1022.39 1022.56 1022.65 1022.68 1022.67 1022.64 1022.62 1022.61 1022.59 1022.55 1022.47 1022.34 1022.16 1021.96 1021.77 1021.63 1021.57 1021.61 1021.73 1021.89 1022.07 1022.21 1022.29 1022.30 1022.23 1022.13
1018.33 1018.35 1018.51 1018.81 1019.22 1019.68 1020.14 1020.54 1020.85 1021.08 1021.24 1021.39 1021.54 1021.74 1021.97 1022.23 1022.47 1022.68 1022.82 1022.90 1022.92 1022.91 1022.90 1022.90 1022.91 1022.91 1022.89 1022.83 1022.71 1022.54 1022.35 1022.18 1022.06 1022.02 1022.07 1022.19 1022.35 1022.51 1022.64 1022.71 1022.71 1022.65 1022.56
1018.61 1018.62 1018.75 1019.03 1019.41 1019.84 1020.26 1020.63 1020.93 1021.15 1021.33 1021.50 1021.68 1021.90 1022.15 1022.40 1022.65 1022.85 1022.98 1023.06 1023.10 1023.11 1023.13 1023.16 1023.20 1023.24 1023.25 1023.20 1023.11 1022.97 1022.81 1022.66 1022.56 1022.53 1022.57 1022.67 1022.81 1022.93 1023.02 1023.06 1023.05 1022.99 1022.92
1018.94 1018.93 1019.05 1019.29 1019.62 1019.99 1020.36 1020.67 1020.92 1021.12 1021.29 1021.46 1021.66 1021.89 1022.16 1022.43 1022.69 1022.90 1023.06 1023.16 1023.23 1023.28 1023.34 1023.42 1023.50 1023.58 1023.62 1023.61 1023.55 1023.43 1023.30 1023.18 1023.09 1023.06 1023.09 1023.17 1023.26 1023.33 1023.37 1023.36 1023.31 1023.25 1023.18
1019.28 1019.28 1019.39 1019.59 1019.86 1020.15 1020.43 1020.66 1020.85 1020.99 1021.14 1021.30 1021.51 1021.77 1022.06 1022.36 1022.65 1022.89 1023.08 1023.22 1023.34 1023.45 1023.56 1023.69 1023.81 1023.93 1024.01 1024.03 1023.99 1023.91 1023.81 1023.71 1023.63 1023.61 1023.62 1023.66 1023.69 1023.70 1023.68 1023.61 1023.52 1023.43 1023.36
1019.64 1019.65 1019.74 1019.90 1020.10 1020.31 1020.49 1020.63 1020.74 1020.83 1020.95 1021.11 1021.33 1021.61 1021.93 1022.27 1022.59 1022.87 1023.10 1023.30 1023.46 1023.62 1023.79 1023.96 1024.13 1024.28 1024.38 1024.43 1024.42 1024.36 1024.29 1024.21 1024.15 1024.13 1024.12 1024.13 1024.11 1024.06 1023.97 1023.84 1023.70 1023.57 1023.49
1020.01 1020.04 1020.12 1020.24 1020.37 1020.49 1020.57 1020.62 1020.66 1020.71 1020.79 1020.96 1021.19 1021.50 1021.86 1022.22 1022.58 1022.90 1023.17 1023.41 1023.63 1023.83 1024.04 1024.25 1024.44 1024.61 1024.73 1024.79 1024.79 1024.76 1024.70 1024.65 1024.61 1024.59 1024.59 1024.57 1024.51 1024.41 1024.26 1024.07 1023.87 1023.70 1023.59
1020.42 1020.46 1020.52 1020.60 1020.67 1020.70 1020.70 1020.68 1020.66 1020.68 1020.76 1020.93 1021.19 1021.53 1021.91 1022.30 1022.68 1023.03 1023.33 1023.60 1023.84 1024.08 1024.31 1024.54 1024.74 1024.91 1025.03 1025.09 1025.10 1025.07 1025.03 1025.00 1024.98 1024.98 1024.98 1024.96 1024.89 1024.76 1024.57 1024.33 1024.08 1023.86 1023.69
1020.85 1020.91 1020.96 1021.00 1021.01 1020.98 1020.91 1020.84 1020.79 1020.80 1020.90 1021.09 1021.38 1021.73 1022.13 1022.53 1022.92 1023.27 1023.58 1023.86 1024.12 1024.37 1024.61 1024.84 1025.03 1025.19 1025.28 1025.32 1025.32 1025.29 1025.26 1025.24 1025.25 1025.28 1025.31 1025.30 1025.24 1025.10 1024.89 1024.62 1024.33 1024.06 1023.84
1021.31 1021.38 1021.42 1021.43 1021.39 1021.31 1021.21 1021.13 1021.08 1021.11 1021.23 1021.45 1021.76 1022.13 1022.52 1022.91 1023.28 1023.62 1023.91 1024.19 1024.45 1024.70 1024.93 1025.14 1025.32 1025.44 1025.50 1025.50 1025.47 1025.43 1025.39 1025.39 1025.43 1025.49 1025.55 1025.59 1025.56 1025.44 1025.23 1024.96 1024.64 1024.32 1024.05
1021.77 1021.85 1021.88 1021.86 1021.79 1021.69 1021.59 1021.52 1021.51 1021.58 1021.74 1022.00 1022.32 1022.69 1023.06 1023.42 1023.75 1024.05 1024.32 1024.57 1024.82 1025.06 1025.28 1025.47 1025.61 1025.69 1025.70 1025.66 1025.59 1025.52 1025.47 1025.47 1025.53 1025.63 1025.75 1025.83 1025.85 1025.78 1025.60 1025.34 1025.01 1024.67 1024.34
1022.20 1022.28 1022.30 1022.26 1022.18 1022.10 1022.02 1022.00 1022.05 1022.18 1022.41 1022.70 1023.03 1023.37 1023.71 1024.01 1024.28 1024.53 1024.76 1024.99 1025.22 1025.45 1025.66 1025.83 1025.94 1025.98 1025.94 1025.85 1025.73 1025.62 1025.55 1025.55 1025.62 1025.76 1025.92 1026.06 1026.14 1026.12 1026.00 1025.77 1025.45 1025.09 1024.72
1022.55 1022.64 1022.65 1022.60 1022.54 1022.48 1022.47 1022.53 1022.66 1022.88 1023.16 1023.49 1023.82 1024.13 1024.41 1024.65 1024.86 1025.05 1025.24 1025.45 1025.67 1025.89 1026.10 1026.25 1026.34 1026.34 1026.25 1026.11 1025.94 1025.79 1025.70 1025.69 1025.77 1025.93 1026.13 1026.32 1026.46 1026.50 1026.43 1026.24 1025.94 1025.58 1025.18
1022.81 1022.89 1022.90 1022.86 1022.83 1022.83 1022.90 1023.06 1023.30 1023.62 1023.97 1024.33 1024.66 1024.93 1025.15 1025.33 1025.47 1025.61 1025.76 1025.95 1026.17 1026.40 1026.60 1026.75 1026.82 1026.79 1026.67 1026.49 1026.29 1026.10 1025.99 1025.97 1026.05 1026.22 1026.44 1026.66 1026.83 1026.92 1026.89 1026.74 1026.48 1026.12 1025.71
1022.96 1023.04 1023.05 1023.03 1023.04 1023.12 1023.30 1023.58 1023.94 1024.36 1024.79 1025.18 1025.51 1025.75 1025.92 1026.03 1026.11 1026.21 1026.34 1026.52 1026.74 1026.98 1027.19 1027.35 1027.41 1027.37 1027.23 1027.03 1026.80 1026.60 1026.47 1026.43 1026.51 1026.67 1026.89 1027.11 1027.30 1027.40 1027.39 1027.27 1027.02 1026.68 1026.27
1023.02 1023.10 1023.11 1023.12 1023.19 1023.36 1023.65 1024.05 1024.54 1025.07 1025.58 1026.01 1026.34 1026.57 1026.69 1026.76 1026.80 1026.86 1026.98 1027.17 1027.40 1027.65 1027.87 1028.04 1028.11 1028.07 1027.93 1027.73 1027.50 1027.30 1027.16 1027.12 1027.17 1027.31 1027.50 1027.70 1027.86 1027.94 1027.92 1027.79 1027.55 1027.22 1026.82
1023.01 1023.09 1023.11 1023.16 1023.29 1023.55 1023.95 1024.48 1025.09 1025.72 1026.31 1026.79 1027.14 1027.36 1027.47 1027.51 1027.53 1027.58 1027.70 1027.89 1028.13 1028.39 1028.63 1028.81 1028.89 1028.87 1028.75 1028.56 1028.36 1028.18 1028.05 1028.01 1028.04 1028.15 1028.28 1028.41 1028.49 1028.51 1028.44 1028.27 1028.02 1027.69 1027.30
1022.96 1023.05 1023.09 1023.17 1023.36 1023.70 1024.20 1024.84 1025.56 1026.29 1026.94 1027.48 1027.86 1028.10 1028.21 1028.26 1028.29 1028.35 1028.47 1028.67 1028.92 1029.19 1029.44 1029.62 1029.72 1029.72 1029.63 1029.49 1029.33 1029.19 1029.09 1029.05 1029.07 1029.12 1029.17 1029.20 1029.18 1029.09 1028.93 1028.69 1028.40 1028.05 1027.67
1022.91 1023.03 1023.09 1023.20 1023.43 1023.84 1024.42 1025.14 1025.94 1026.74 1027.46 1028.04 1028.47 1028.74 1028.89 1028.96 1029.02 1029.11 1029.26 1029.47 1029.73 1030.00 1030.24 1030.43 1030.54 1030.56 1030.51 1030.43 1030.33 1030.24 1030.19 1030.16 1030.16 1030.15 1030.11 1030.03 1029.87 1029.65 1029.36 1029.03 1028.67 1028.29 1027.90
1022.88 1023.03 1023.12 1023.26 1023.53 1023.97 1024.60 1025.36 1026.21 1027.05 1027.82 1028.45 1028.92 1029.24 1029.44 1029.57 1029.68 1029.81 1029.99 1030.23 1030.49 1030.76 1030.99 1031.18 1031.29 1031.34 1031.33 1031.31 1031.28 1031.26 1031.25 1031.25 1031.23 1031.17 1031.03 1030.82 1030.52 1030.15 1029.73 1029.28 1028.84 1028.42 1028.02
1022.89 1023.09 1023.21 1023.37 1023.66 1024.12 1024.75 1025.52 1026.38 1027.23 1028.02 1028.67 1029.19 1029.56 1029.83 1030.03 1030.21 1030.41 1030.64 1030.89 1031.16 1031.42 1031.65 1031.82 1031.93 1032.00 1032.04 1032.07 1032.11 1032.16 1032.21 1032.23 1032.20 1032.09 1031.87 1031.54 1031.10 1030.59 1030.04 1029.49 1028.96 1028.49 1028.07
1022.92 1023.18 1023.34 1023.53 1023.82 1024.27 1024.89 1025.64 1026.46 1027.29 1028.07 1028.74 1029.28 1029.71 1030.05 1030.33 1030.59 1030.86 1031.14 1031.43 1031.71 1031.97 1032.18 1032.33 1032.45 1032.53 1032.60 1032.68 1032.78 1032.89 1032.99 1033.04 1033.01 1032.86 1032.58 1032.15 1031.62 1031.00 1030.34 1029.69 1029.09 1028.57 1028.12
Thickness
5712 5708 5705 5702 5700 5699 5698 5697 5696 5696 5696 5696 5696 5696 5696 5696 5696 5697 5698 5698 5699 5700 5701 5701 5702 5703 5704 5704 5705 5706 5707 5707 5708 5708 5708 5709 5709 5709 5709 5710 5710 5710 5710
5716 5709 5705 5703 5700 5698 5697 5695 5695 5694 5694 5693 5693 5693 5693 5693 5693 5693 5694 5694 5695 5696 5696 5697 5697 5698 5699 5700 5701 5702 5702 5703 5704 5704 5704 5704 5704 5704 5704 5705 5705 5705 5705
5716 5709 5705 5702 5700 5698 5696 5694 5693 5692 5692 5691 5691 5690 5690 5690 5690 5690 5690 5690 5691 5692 5692 5692 5693 5694 5695 5696 5697 5697 5698 5699 5701 5701 5701 5700 5700 5699 5699 5699 5699 5699 5700
5716 5710 5705 5702 5700 5697 5695 5694 5692 5691 5691 5690 5689 5688 5688 5687 5687 5687 5686 5687 5687 5687 5688 5688 5688 5689 5690 5691 5692 5693 5694 5695 5697 5697 5698 5697 5695 5694 5694 5694 5693 5694 5694
5715 5710 5705 5701 5699 5697 5695 5693 5691 5690 5689 5688 5688 5687 5686 5685 5684 5684 5683 5683 5683 5683 5683 5683 5684 5684 5686 5687 5687 5688 5689 5691 5692 5693 5693 5691 5690 5689 5689 5688 5688 5688 5689
5714 5710 5705 5701 5698 5696 5694 5692 5690 5689 5688 5687 5686 5685 5684 5683 5682 5681 5681 5680 5680 5679 5679 5679 5679 5680 5681 5682 5683 5683 5685 5686 5688 5688 5687 5685 5684 5683 5683 5683 5683 5683 5683
5712 5708 5704 5700 5698 5696 5694 5692 5690 5688 5687 5686 5684 5683 5682 5681 5679 5678 5678 5677 5676 5676 5675 5675 5676 5676 5676 5677 5678 5679 5680 5682 5683 5682 5680 5678 5678 5678 5678 5678 5678 5678 5678
5707 5705 5702 5699 5697 5695 5694 5692 5690 5688 5686 5684 5683 5682 5680 5679 5677 5676 5675 5674 5673 5672 5672 5672 5672 5672 5672 5672 5673 5674 5675 5676 5677 5676 5673 5672 5672 5672 5672 5672 5672 5672 5673
5702 5701 5699 5698 5696 5695 5693 5691 5689 5687 5685 5683 5682 5680 5678 5677 5675 5673 5672 5670 5669 5669 5668 5668 5667 5667 5667 5667 5667 5668 5669 5670 5670 5669 5667 5665 5665 5666 5666 5666 5666 5666 5667
5698 5697 5696 5695 5695 5694 5693 5691 5688 5686 5684 5682 5680 5678 5676 5675 5673 5671 5669 5667 5666 5665 5664 5663 5662 5662 5662 5662 5662 5662 5663 5663 5663 5661 5659 5659 5659 5660 5660 5660 5660 5660 5661
5694 5693 5692 5692 5692 5692 5691 5690 5688 5685 5683 5681 5679 5677 5675 5673 5671 5668 5666 5664 5663 5661 5660 5659 5658 5657 5657 5656 5656 5656 5656 5656 5655 5654 5652 5651 5652 5652 5653 5653 5654 5654 5654
5689 5688 5688 5688 5688 5689 5689 5688 5686 5684 5682 5679 5677 5675 5673 5671 5669 5666 5663 5661 5659 5657 5655 5653 5652 5652 5651 5650 5649 5649 5649 5648 5648 5646 5645 5645 5645 5645 5646 5646 5647 5647 5647
5684 5683 5683 5684 5685 5685 5685 5684 5683 5681 5679 5676 5674 5672 5670 5668 5665 5662 5659 5656 5654 5652 5650 5648 5647 5645 5644 5643 5643 5642 5641 5641 5640 5639 5638 5637 5637 5638 5638 5639 5639 5640 5640
5678 5677 5678 5679 5681 5681 5681 5680 5678 5676 5673 5671 5669 5667 5666 5663 5660 5657 5654 5651 5649 5646 5644 5643 5641 5640 5638 5636 5635 5635 5634 5633 5632 5631 5630 5630 5629 5629 5630 5631 5631 5632 5632
5672 5671 5672 5675 5677 5677 5676 5674 5671 5669 5666 5663 5662 5661 5660 5657 5654 5650 5647 5644 5641 5639 5637 5635 5634 5633 5631 5630 5628 5626 5625 5625 5624 5623 5622 5621 5621 5620 5620 5621 5621 5622 5623
5665 5665 5666 5669 5671 5671 5669 5666 5664 5661 5658 5655 5653 5652 5651 5649 5646 5642 5639 5635 5633 5631 5630 5627 5626 5624 5623 5622 5620 5619 5617 5616 5615 5614 5613 5611 5610 5609 5609 5609 5609 5610 5611
5659 5659 5660 5661 5663 5663 5660 5658 5655 5652 5650 5647 5644 5643 5642 5640 5637 5634 5630 5626 5623 5622 5621 5619 5617 5616 5614 5613 5611 5610 5609 5607 5605 5603 5602 5600 5598 5597 5596 5595 5596 5597 5598
5654 5653 5653 5654 5654 5653 5651 5648 5645 5643 5641 5637 5635 5633 5632 5630 5627 5624 5620 5617 5614 5612 5611 5609 5607 5605 5603 5602 5601 5600 5599 5597 5594 5591 5589 5587 5585 5583 5582 5581 5581 5582 5583
5648 5647 5646 5646 5645 5644 5641 5639 5636 5633 5630 5627 5625 5623 5621 5619 5617 5615 5611 5607 5605 5602 5600 5598 5595 5592 5590 5590 5590 5589 5588 5585 5582 5579 5575 5572 5570 5568 5566 5566 5566 5566 5567
5642 5641 5639 5638 5637 5636 5634 5631 5627 5623 5619 5616 5614 5612 5610 5608 5606 5603 5599 5596 5593 5590 5588 5585 5583 5580 5577 5577 5578 5577 5575 5571 5567 5564 5560 5557 5554 5551 5550 5549 5548 5549 5549
5636 5634 5633 5632 5631 5630 5627 5624 5618 5612 5607 5605 5602 5600 5598 5596 5594 5591 5587 5583 5580 5576 5572 5570 5568 5565 5562 5562 5561 5559 5557 5556 5550 5547 5543 5540 5536 5533 5531 5530 5530 5530 5531
5629 5628 5627 5626 5624 5622 5619 5615 5609 5603 5597 5593 5590 5587 5585 5583 5580 5577 5573 5569 5565 5561 5557 5554 5551 5548 5544 5542 5538 5536 5532 5534 5530 5529 5525 5521 5517 5514 5512 5511 5510 5510 5511
5621 5619 5619 5618 5615 5612 5609 5605 5599 5594 5587 5581 5576 5574 5571 5568 5565 5562 5558 5554 5549 5545 5540 5535 5532 5529 5523 5520 5517 5511 5503 5499 5501 5506 5504 5501 5497 5493 5491 5490 5489 5490 5491
5612 5611 5610 5608 5606 5603 5600 5597 5593 5586 5578 5569 5564 5561 5557 5554 5551 5546 5542 5537 5533 5528 5523 5518 5513 5508 5503 5497 5493 5488 5482 5477 5473 5474 5479 5477 5474 5471 5469 5469 5468 5468 5469
5604 5602 5600 5598 5596 5594 5591 5588 5582 5574 5567 5559 5554 5549 5544 5539 5535 5531 5526 5521 5516 5510 5504 5499 5493 5488 5483 5476 5470 5464 5459 5454 5448 5444 5447 5451 5449 5447 5446 5446 5447 5447 5447
5594 5592 5590 5588 5586 5584 5581 5576 5571 5565 5557 5550 5543 5537 5531 5525 5520 5515 5510 5504 5498 5492 5486 5480 5474 5468 5461 5455 5448 5441 5434 5427 5421 5415 5415 5419 5422 5425 5425 5424 5423 5423 5423